Location: Paris
(48.6709°N, 2.3750°E)
Time: 18:46:58
(UTC+02:00)

QB50P2 - Pass Details

Date: 05 July 2022
Orbit: 590 x 605 km, 97.9° (Epoch: 18 August)

Event Time Altitude Azimuth Distance (km) Brightness Sun altitude
Rises 02:45:58 0° 20° (NNE) 2,866 ? -17.6°
Reaches altitude 10° 02:48:17 10° 29° (NNE) 1,960 ? -17.5°
Maximum altitude 02:52:14 37° 97° (E) 950 ? -17.4°
Enters shadow 02:54:13 24° 148° (SSE) 1,277 ? -17.3°
